When you browse on this site, cookies collect data to enhance your experience and personalize the content and advertising you see.
Visit our Privacy Policy to learn more. By continuing to use the site, you agree to this use of cookies and data.
  • In Lithuania
  • List of Countries
  • For 7 days
  • Water Temperature
  • Weather Map
  • Weather Widgets
  • user-avatar
    Login

    Hourly Weather Blansko

    Today, 16 September, Monday

    Time Temperature Precipitation Wind Pressure Humidity
    00:00 +15°C° 0 mm 1 mps 735 mmHg 83%
    01:00 +14°C° 0 mm 1 mps 735 mmHg 85%
    02:00 +14°C° 0 mm 1 mps 735 mmHg 87%
    03:00 +14°C° 0 mm 1 mps 734 mmHg 89%
    04:00 +14°C° 0 mm 1 mps 734 mmHg 91%
    05:00 +14°C° 0 mm 1 mps 734 mmHg 88%
    06:00 +15°C° 0 mm 1 mps 734 mmHg 85%
    07:00 +15°C° 0 mm 1 mps 734 mmHg 82%
    08:00 +18°C° 0 mm 1 mps 734 mmHg 73%
    09:00 +19°C° 0 mm 2 mps 735 mmHg 65%
    10:00 +21°C° 0 mm 2 mps 735 mmHg 56%
    11:00 +21°C° 0 mm 2 mps 734 mmHg 54%
    12:00 +22°C° 0 mm 3 mps 734 mmHg 53%
    13:00 +22°C° 0 mm 3 mps 734 mmHg 51%
    14:00 +22°C° 0 mm 3 mps 733 mmHg 52%
    15:00 +22°C° 0 mm 3 mps 733 mmHg 53%
    16:00 +22°C° 0 mm 3 mps 733 mmHg 54%
    17:00 +20°C° 0 mm 2 mps 733 mmHg 62%
    18:00 +19°C° 0 mm 2 mps 732 mmHg 69%
    19:00 +18°C° 0 mm 1 mps 732 mmHg 76%
    20:00 +18°C° 0.2 mm 1 mps 732 mmHg 80%
    21:00 +16°C° 0.2 mm 1 mps 732 mmHg 84%
    22:00 +16°C° 0.2 mm 1 mps 732 mmHg 89%
    23:00 +16°C° 0.2 mm 1 mps 732 mmHg 90%

    Tomorrow, 17 September, Tuesday

    Time Temperature Precipitation Wind Pressure Humidity
    00:00 +16°C° 0.2 mm 2 mps 732 mmHg 91%
    01:00 +16°C° 0.2 mm 2 mps 732 mmHg 92%
    02:00 +15°C° 0.2 mm 2 mps 732 mmHg 92%
    03:00 +14°C° 0.2 mm 3 mps 732 mmHg 92%
    04:00 +14°C° 0.2 mm 3 mps 731 mmHg 91%
    05:00 +13°C° 0 mm 3 mps 731 mmHg 89%
    06:00 +13°C° 0 mm 4 mps 732 mmHg 86%
    07:00 +12°C° 0 mm 4 mps 732 mmHg 83%
    08:00 +13°C° 0 mm 4 mps 732 mmHg 77%
    09:00 +14°C° 0 mm 5 mps 732 mmHg 71%
    10:00 +15°C° 0 mm 5 mps 732 mmHg 65%
    11:00 +15°C° 0 mm 5 mps 732 mmHg 62%
    12:00 +16°C° 0 mm 6 mps 732 mmHg 59%
    13:00 +17°C° 0 mm 6 mps 731 mmHg 57%
    14:00 +16°C° 0 mm 6 mps 731 mmHg 57%
    15:00 +16°C° 0 mm 6 mps 731 mmHg 58%
    16:00 +15°C° 0 mm 5 mps 731 mmHg 58%
    17:00 +14°C° 0 mm 5 mps 731 mmHg 62%
    18:00 +13°C° 0 mm 4 mps 731 mmHg 66%
    19:00 +11°C° 0 mm 3 mps 731 mmHg 70%
    20:00 +11°C° 0 mm 4 mps 731 mmHg 70%
    21:00 +9°C° 0 mm 5 mps 732 mmHg 70%
    22:00 +9°C° 0 mm 5 mps 733 mmHg 71%
    23:00 +8°C° 0 mm 5 mps 733 mmHg 70%

    Day after tomorrow, 18 September, Wednesday

    Time Temperature Precipitation Wind Pressure Humidity
    00:00 +7°C° 0 mm 5 mps 733 mmHg 70%
    01:00 +6°C° 0 mm 5 mps 734 mmHg 69%
    02:00 +6°C° 0 mm 5 mps 734 mmHg 71%
    03:00 +6°C° 0 mm 5 mps 735 mmHg 73%
    04:00 +5°C° 0 mm 5 mps 735 mmHg 75%
    05:00 +5°C° 0 mm 5 mps 735 mmHg 75%
    06:00 +6°C° 0 mm 5 mps 736 mmHg 74%
    07:00 +6°C° 0 mm 5 mps 736 mmHg 73%
    08:00 +7°C° 0 mm 5 mps 736 mmHg 66%
    09:00 +9°C° 0 mm 5 mps 737 mmHg 59%
    10:00 +11°C° 0 mm 4 mps 737 mmHg 52%
    11:00 +12°C° 0 mm 4 mps 737 mmHg 49%
    12:00 +13°C° 0 mm 4 mps 737 mmHg 46%
    13:00 +14°C° 0 mm 4 mps 736 mmHg 43%
    14:00 +14°C° 0 mm 4 mps 736 mmHg 46%
    15:00 +13°C° 0 mm 5 mps 736 mmHg 49%
    16:00 +13°C° 0 mm 5 mps 736 mmHg 53%
    17:00 +11°C° 0 mm 4 mps 736 mmHg 59%
    18:00 +10°C° 0 mm 3 mps 736 mmHg 66%
    19:00 +8°C° 0 mm 2 mps 736 mmHg 73%
    20:00 +7°C° 0 mm 2 mps 737 mmHg 75%
    21:00 +7°C° 0 mm 2 mps 737 mmHg 77%
    22:00 +6°C° 0 mm 2 mps 737 mmHg 79%
    23:00 +6°C° 0 mm 2 mps 738 mmHg 81%

    19 September, Thursday

    Time Temperature Precipitation Wind Pressure Humidity
    00:00 +6°C° 0 mm 1 mps 738 mmHg 83%
    01:00 +6°C° 0 mm 1 mps 738 mmHg 84%
    02:00 +6°C° 0 mm 1 mps 738 mmHg 85%
    03:00 +5°C° 0 mm 1 mps 737 mmHg 86%
    04:00 +5°C° 0 mm 1 mps 737 mmHg 87%
    05:00 +6°C° 0 mm 1 mps 738 mmHg 84%
    06:00 +6°C° 0 mm 2 mps 738 mmHg 81%
    07:00 +6°C° 0 mm 2 mps 738 mmHg 78%
    08:00 +8°C° 0 mm 3 mps 738 mmHg 70%
    09:00 +10°C° 0 mm 3 mps 739 mmHg 62%
    10:00 +11°C° 0 mm 4 mps 739 mmHg 54%
    11:00 +12°C° 0 mm 4 mps 739 mmHg 52%
    12:00 +13°C° 0 mm 4 mps 739 mmHg 50%
    13:00 +13°C° 0 mm 3 mps 739 mmHg 48%
    14:00 +13°C° 0 mm 3 mps 739 mmHg 50%
    15:00 +13°C° 0 mm 4 mps 739 mmHg 51%
    16:00 +13°C° 0 mm 4 mps 739 mmHg 53%
    17:00 +11°C° 0 mm 3 mps 739 mmHg 60%
    18:00 +9°C° 0 mm 3 mps 740 mmHg 68%
    19:00 +8°C° 0 mm 2 mps 740 mmHg 75%
    20:00 +7°C° 0 mm 2 mps 740 mmHg 77%
    21:00 +7°C° 0 mm 2 mps 741 mmHg 79%
    22:00 +6°C° 0 mm 2 mps 741 mmHg 81%
    23:00 +6°C° 0 mm 2 mps 741 mmHg 81%

    20 September, Friday

    Time Temperature Precipitation Wind Pressure Humidity
    00:00 +6°C° 0 mm 2 mps 741 mmHg 82%
    01:00 +5°C° 0 mm 2 mps 741 mmHg 82%
    02:00 +6°C° 0 mm 1 mps 741 mmHg 83%
    03:00 +6°C° 0 mm 1 mps 741 mmHg 84%
    04:00 +6°C° 0 mm 1 mps 741 mmHg 85%
    05:00 +6°C° 0 mm 1 mps 741 mmHg 82%
    06:00 +7°C° 0 mm 1 mps 741 mmHg 79%
    07:00 +7°C° 0 mm 1 mps 742 mmHg 76%
    08:00 +9°C° 0 mm 1 mps 742 mmHg 67%
    09:00 +11°C° 0 mm 1 mps 742 mmHg 57%
    10:00 +14°C° 0 mm 1 mps 743 mmHg 48%
    11:00 +14°C° 0 mm 1 mps 742 mmHg 43%
    12:00 +15°C° 0 mm 1 mps 742 mmHg 39%
    13:00 +16°C° 0 mm 2 mps 742 mmHg 35%
    14:00 +15°C° 0 mm 2 mps 741 mmHg 36%
    15:00 +15°C° 0 mm 2 mps 741 mmHg 38%
    16:00 +15°C° 0 mm 2 mps 741 mmHg 39%
    17:00 +13°C° 0 mm 2 mps 741 mmHg 46%
    18:00 +11°C° 0 mm 1 mps 741 mmHg 53%
    19:00 +9°C° 0 mm 1 mps 742 mmHg 60%
    20:00 +8°C° 0 mm 1 mps 742 mmHg 63%
    21:00 +8°C° 0 mm 1 mps 742 mmHg 65%
    22:00 +7°C° 0 mm 1 mps 742 mmHg 67%
    23:00 +7°C° 0 mm 1 mps 742 mmHg 68%

    21 September, Saturday

    Time Temperature Precipitation Wind Pressure Humidity
    00:00 +7°C° 0 mm 1 mps 742 mmHg 69%
    01:00 +6°C° 0 mm 1 mps 742 mmHg 70%
    02:00 +6°C° 0 mm 1 mps 742 mmHg 71%
    03:00 +6°C° 0 mm 1 mps 741 mmHg 72%
    04:00 +6°C° 0 mm 1 mps 741 mmHg 73%
    05:00 +6°C° 0 mm 1 mps 741 mmHg 71%
    06:00 +7°C° 0 mm 1 mps 741 mmHg 69%
    07:00 +6°C° 0 mm 2 mps 741 mmHg 67%
    08:00 +8°C° 0 mm 2 mps 741 mmHg 60%
    09:00 +11°C° 0 mm 3 mps 742 mmHg 52%
    10:00 +13°C° 0 mm 4 mps 742 mmHg 45%
    11:00 +14°C° 0 mm 4 mps 741 mmHg 42%
    12:00 +15°C° 0 mm 4 mps 741 mmHg 39%
    13:00 +16°C° 0 mm 5 mps 741 mmHg 37%
    14:00 +16°C° 0 mm 5 mps 740 mmHg 37%
    15:00 +17°C° 0 mm 4 mps 740 mmHg 38%
    16:00 +17°C° 0 mm 4 mps 740 mmHg 39%
    17:00 +14°C° 0 mm 4 mps 740 mmHg 43%
    18:00 +12°C° 0 mm 4 mps 740 mmHg 47%
    19:00 +10°C° 0 mm 3 mps 740 mmHg 52%
    20:00 +10°C° 0 mm 3 mps 739 mmHg 52%
    21:00 +10°C° 0 mm 3 mps 739 mmHg 52%
    22:00 +9°C° 0 mm 3 mps 739 mmHg 53%
    23:00 +9°C° 0 mm 3 mps 739 mmHg 54%
    Show more